Location: Bednik
(45.3500°N, 16.3833°E)
Time: 07:48:24
(UTC+00:00)

SAR-Lupe-2 - Pass Details

Date: 08 August 2020
Orbit: 482 x 484 km, 98.1° (Epoch: 24 August)

Event Time Altitude Azimuth Distance (km) Brightness Sun altitude
Rises 20:02:05 0° 21° (NNE) 2,557 7.6 -16.8°
Reaches altitude 10° 20:04:16 10° 30° (NNE) 1,672 6.5 -17.0°
Enters shadow 20:07:36 37° 98° (E) 768 4.1 -17.4°
